Wind_Speed
39 40 40 41 42 42 43 43 44 45 46 47 49 50 51 52 53 53 53 52 52 52 52 51 51 51 50 51 51 52 52 53 52 49 48 48 48 48 46 45 44 42 41
40 41 41 42 42 43 44 44 45 46 48 49 50 51 52 52 52 52 52 52 52 51 51 50 51 50 50 51 51 51 51 51 50 48 46 46 45 44 43 41 40 39 37
41 42 42 43 43 44 45 46 47 48 49 50 51 52 52 52 52 52 52 51 51 50 50 50 50 50 50 50 50 51 50 49 48 47 45 43 41 40 39 37 37 36 34
42 43 43 44 44 45 46 47 48 49 49 50 51 52 52 52 52 52 51 51 50 50 50 50 50 50 50 51 50 50 49 48 46 45 42 39 37 37 36 35 34 33 30
43 43 44 45 46 47 47 48 48 49 49 50 51 51 52 52 52 52 51 50 49 49 49 49 49 49 50 50 50 48 47 46 44 42 38 36 36 35 33 32 31 29 27
43 44 45 45 46 47 47 48 48 49 49 50 51 51 52 53 52 51 50 49 49 49 48 47 48 48 49 48 47 46 45 44 42 39 36 35 34 33 31 30 28 26 24
44 45 45 46 46 47 47 48 49 49 50 51 52 52 53 53 51 50 50 49 48 48 47 46 47 47 47 46 44 43 42 42 39 37 35 33 32 32 31 28 26 23 22
44 45 46 46 46 47 47 48 49 50 51 51 51 52 52 51 50 49 48 48 47 46 46 46 46 46 46 44 42 41 40 38 36 36 34 32 31 30 29 26 24 22 21
45 45 45 46 46 46 47 48 49 50 50 50 51 51 50 49 47 47 46 46 45 45 45 46 45 44 43 42 40 38 36 35 34 33 32 30 29 28 26 23 22 20 19
45 45 45 45 45 46 46 47 48 49 49 49 49 49 48 46 45 45 44 44 44 44 44 44 43 42 41 40 38 35 33 32 32 31 29 28 26 24 22 20 19 18 17
44 45 45 45 46 46 47 47 48 48 47 47 47 47 46 44 44 43 43 43 43 43 43 42 41 40 39 37 34 32 30 30 29 28 27 25 23 21 20 18 17 16 16
44 44 45 46 46 46 46 46 46 46 46 46 45 44 43 43 43 43 43 43 42 42 41 40 39 37 35 33 31 29 29 29 27 26 25 22 20 19 18 16 15 15 14
43 44 44 45 45 45 45 45 45 45 45 45 44 43 42 42 42 42 42 41 41 41 40 39 37 35 33 30 29 28 28 27 26 24 22 20 19 18 17 15 14 14 13
42 43 43 43 43 43 44 44 45 45 44 43 42 41 41 40 41 41 41 40 40 39 38 36 34 32 30 29 28 27 27 25 23 22 20 19 18 16 15 13 13 12 11
42 42 42 42 41 42 43 43 43 43 43 42 41 40 39 39 39 39 39 38 37 36 35 34 32 30 29 28 28 27 25 23 22 20 18 17 16 15 12 11 11 11 10
41 41 41 41 41 41 42 42 42 42 42 41 39 39 39 38 38 38 37 36 34 34 33 31 30 29 28 27 26 25 23 22 21 18 16 15 14 13 11 10 10 9 8
40 39 39 39 40 41 41 41 41 41 40 39 38 38 37 37 36 36 35 34 33 32 31 29 27 27 26 25 24 23 21 20 18 16 14 13 13 12 10 9 8 7 6
39 39 40 40 40 41 41 40 39 38 37 37 37 36 36 35 34 34 33 33 32 30 29 27 26 25 24 23 22 20 19 17 16 15 13 12 12 11 9 8 8 7 6
39 40 40 40 40 40 39 38 37 36 35 35 35 35 34 34 33 33 32 31 29 27 27 26 25 23 22 20 19 18 16 15 14 13 12 11 9 9 9 8 8 7 6
39 39 39 39 38 38 37 36 35 35 34 34 34 33 33 32 31 30 29 28 26 25 24 23 22 21 19 17 16 15 14 13 12 11 10 9 8 8 8 8 7 7 6
35 36 36 36 36 35 34 34 33 33 33 33 32 30 30 29 28 27 26 25 23 21 20 19 18 16 15 14 13 13 12 11 11 10 9 8 8 8 8 8 7 6 5
32 32 32 32 31 31 31 30 30 30 30 29 28 27 26 25 24 23 22 21 19 18 16 14 13 12 11 11 11 10 10 10 9 9 8 8 9 10 9 8 7 6 5
31 30 30 29 29 28 28 27 27 26 26 24 23 22 22 21 19 19 18 17 15 13 12 11 11 10 10 9 9 9 9 10 9 9 8 9 10 10 9 8 8 7 5
28 27 27 26 25 25 24 23 22 21 20 19 19 18 17 16 15 14 13 12 11 10 10 9 9 9 9 9 9 10 10 11 10 9 10 11 11 10 9 9 8 7 6
23 23 22 21 20 20 19 19 18 17 16 16 15 14 13 12 12 11 10 9 9 9 10 9 9 9 10 11 11 11 11 11 10 10 11 12 12 10 10 9 8 7 6
20 19 19 18 17 17 16 16 15 15 14 13 12 11 10 10 9 9 8 8 9 9 10 10 10 10 11 12 12 12 12 11 11 12 12 13 12 10 10 9 9 8 7
Wind_Direction
264 266 268 270 272 275 276 277 279 280 282 284 286 287 289 290 290 291 292 293 293 293 294 295 296 297 298 298 298 299 300 301 302 300 298 299 299 298 297 298 299 298 297
264 266 269 271 273 275 276 277 279 281 283 285 286 288 289 290 290 291 292 293 293 293 293 295 295 296 298 298 298 299 300 301 302 301 299 299 299 298 299 299 300 300 297
264 267 269 272 274 275 276 278 279 281 284 285 287 288 289 290 291 291 292 292 293 293 294 295 295 296 297 298 299 300 301 301 302 302 301 300 298 298 300 300 300 299 298
265 267 270 272 274 275 276 278 280 282 284 286 287 288 289 290 291 291 291 292 292 293 294 295 295 296 297 298 299 300 300 301 301 302 301 299 298 299 300 300 301 298 297
266 268 271 272 273 275 276 278 280 282 284 286 287 288 289 290 291 291 291 291 292 293 294 295 295 296 297 299 299 299 300 301 301 301 299 299 299 298 299 300 299 296 295
266 269 271 272 273 275 276 278 280 282 284 286 287 288 289 290 290 290 290 290 291 292 293 294 295 296 297 299 298 299 299 300 301 299 298 298 298 297 298 299 297 295 294
268 270 271 272 274 275 276 278 280 282 284 285 287 288 289 289 289 288 289 290 291 292 292 293 295 296 297 297 297 298 298 299 299 298 298 297 296 295 295 296 296 295 293
269 271 271 272 274 275 276 278 280 282 284 285 286 288 289 289 288 287 288 289 290 291 292 293 295 296 297 296 296 296 297 297 298 299 299 297 296 296 295 294 291 291 291
270 271 271 272 273 275 276 278 280 282 283 284 286 287 288 288 287 287 288 289 289 290 291 293 295 295 295 295 296 295 294 295 297 298 298 297 297 296 295 293 290 287 287
270 270 270 271 273 276 277 278 280 282 283 285 286 287 288 288 287 287 288 288 289 290 292 294 294 294 293 293 294 294 293 294 296 297 297 296 297 296 295 292 290 286 284
269 269 270 272 274 276 277 278 280 282 283 285 286 287 287 287 287 287 288 288 289 290 292 293 293 292 292 292 292 292 292 293 294 294 294 294 292 292 292 291 287 281 286
269 270 271 273 275 276 277 279 280 282 284 285 286 286 286 286 287 287 288 288 289 290 291 291 291 290 290 290 289 290 292 293 293 293 293 291 289 288 287 287 283 282 285
270 271 272 274 275 276 277 278 280 283 284 285 285 285 285 286 287 288 288 288 289 290 289 289 289 288 287 287 288 289 291 291 291 291 290 288 288 285 283 283 281 282 281
271 272 273 274 275 276 277 279 281 282 283 285 285 284 284 285 286 287 287 287 288 288 288 287 286 285 284 285 286 288 290 289 289 289 287 284 283 281 282 278 274 271 271
271 272 274 275 275 276 278 280 281 282 283 283 283 283 283 284 285 286 287 287 287 286 287 285 283 282 283 284 285 286 285 284 285 284 282 280 279 278 276 272 267 259 257
271 273 274 275 276 278 279 280 282 282 282 282 282 282 282 283 284 286 286 287 286 286 286 284 281 279 280 281 281 281 281 280 281 278 277 277 275 271 266 265 256 248 251
270 272 273 275 276 278 280 281 282 282 281 280 280 281 282 283 284 284 285 285 285 284 283 281 279 278 278 277 276 276 276 275 272 271 272 272 267 261 259 253 239 234 236
270 271 273 275 276 278 280 281 282 280 278 279 281 282 283 282 283 283 284 284 284 281 280 279 278 277 276 274 271 270 268 266 264 265 266 263 257 252 250 241 227 221 220
270 272 274 275 276 278 280 280 280 278 278 278 280 281 282 282 283 283 283 283 281 277 276 276 275 274 273 270 267 263 258 256 256 256 255 253 247 242 237 226 216 208 207
271 272 274 275 276 277 278 278 278 277 277 278 279 280 280 280 281 281 281 280 278 276 273 272 271 269 266 263 259 253 251 250 247 245 243 241 234 226 219 210 203 197 192
273 274 275 275 275 276 277 277 277 277 277 278 278 279 278 278 278 279 279 278 276 274 271 268 264 259 255 252 248 246 244 240 235 231 227 223 216 204 198 193 190 188 190
274 275 275 275 275 275 276 275 276 276 276 277 277 277 277 276 275 275 275 275 272 269 265 257 249 246 243 238 237 234 228 221 215 209 203 199 191 184 181 178 178 179 183
274 274 273 273 274 274 275 275 276 276 275 275 275 275 275 274 272 270 270 269 262 256 249 242 235 231 228 223 216 207 200 194 189 183 182 179 176 174 175 175 174 173 174
274 273 273 273 272 272 272 272 274 274 272 270 270 269 269 268 266 263 263 256 245 234 224 218 213 209 205 198 189 185 183 180 179 177 175 173 172 172 174 173 172 171 166
273 272 271 271 270 270 270 272 273 272 268 265 264 263 262 260 255 251 246 232 220 211 204 198 192 189 184 180 178 177 176 174 174 174 171 169 168 170 171 170 169 167 162
270 269 268 267 266 266 268 270 270 268 262 258 257 254 250 247 237 228 217 208 200 192 189 188 185 180 174 171 171 169 168 166 164 165 166 165 166 166 165 164 164 161 158
Height
5693 5693 5693 5692 5691 5690 5689 5687 5686 5683 5681 5679 5676 5673 5669 5665 5661 5657 5652 5648 5644 5639 5635 5630 5626 5621 5616 5611 5605 5600 5595 5589 5584 5581 5575 5570 5564 5558 5553 5547 5542 5537 5533
5682 5682 5682 5681 5680 5679 5678 5676 5674 5672 5670 5667 5664 5660 5657 5652 5648 5644 5640 5636 5631 5627 5623 5619 5614 5609 5605 5599 5594 5589 5584 5578 5572 5569 5565 5559 5553 5548 5543 5538 5534 5529 5525
5672 5672 5671 5670 5669 5668 5666 5664 5662 5660 5658 5655 5651 5648 5644 5640 5636 5632 5628 5624 5619 5615 5611 5607 5602 5598 5594 5588 5583 5578 5573 5567 5561 5557 5553 5548 5544 5538 5534 5530 5526 5521 5518
5661 5660 5660 5659 5658 5656 5654 5653 5650 5648 5646 5642 5639 5635 5631 5628 5624 5620 5616 5612 5607 5603 5599 5595 5591 5586 5582 5577 5572 5567 5562 5557 5551 5547 5543 5539 5535 5530 5526 5523 5519 5515 5511
5649 5649 5648 5647 5646 5644 5643 5641 5639 5636 5633 5630 5627 5623 5619 5615 5611 5607 5604 5600 5596 5592 5587 5583 5579 5575 5570 5565 5560 5555 5551 5546 5542 5537 5534 5530 5527 5523 5519 5515 5512 5509 5506
5637 5637 5636 5635 5634 5632 5631 5629 5626 5624 5621 5618 5614 5611 5607 5603 5599 5595 5591 5588 5584 5580 5576 5572 5568 5563 5558 5554 5549 5544 5540 5536 5532 5529 5526 5522 5519 5515 5512 5508 5506 5503 5501
5625 5625 5624 5623 5622 5620 5618 5616 5614 5611 5608 5605 5602 5598 5594 5590 5586 5583 5579 5576 5572 5568 5564 5561 5557 5552 5547 5543 5539 5535 5531 5526 5523 5520 5517 5514 5512 5509 5506 5503 5500 5498 5496
5613 5613 5612 5611 5609 5608 5606 5604 5601 5599 5596 5592 5589 5585 5581 5578 5574 5571 5567 5564 5560 5556 5553 5549 5546 5541 5537 5533 5529 5526 5522 5518 5515 5511 5509 5506 5503 5501 5498 5496 5494 5492 5491
5601 5600 5599 5598 5597 5596 5594 5592 5589 5586 5583 5580 5576 5573 5569 5565 5562 5559 5555 5552 5549 5546 5542 5538 5535 5531 5527 5523 5520 5517 5514 5511 5507 5504 5501 5498 5496 5494 5491 5490 5488 5487 5486
5589 5588 5587 5586 5585 5583 5581 5579 5576 5574 5570 5567 5564 5560 5557 5554 5550 5547 5544 5542 5539 5536 5532 5528 5524 5520 5516 5513 5510 5508 5506 5503 5500 5497 5494 5492 5490 5488 5486 5485 5483 5482 5481
5576 5576 5575 5574 5572 5571 5569 5566 5564 5561 5558 5555 5552 5548 5545 5542 5539 5536 5533 5531 5528 5525 5522 5519 5515 5511 5507 5505 5502 5500 5498 5496 5493 5491 5489 5487 5485 5483 5482 5480 5479 5478 5477
5564 5563 5563 5561 5560 5558 5556 5554 5551 5549 5546 5543 5540 5537 5534 5531 5528 5525 5522 5519 5517 5514 5512 5508 5505 5502 5499 5497 5495 5493 5491 5489 5487 5485 5484 5482 5481 5479 5477 5476 5475 5475 5474
5552 5551 5550 5549 5547 5546 5544 5542 5540 5537 5534 5532 5529 5526 5523 5520 5517 5514 5511 5509 5506 5504 5501 5498 5496 5493 5491 5489 5488 5486 5484 5483 5481 5480 5478 5477 5476 5475 5473 5473 5472 5471 5471
5540 5539 5538 5537 5535 5534 5532 5530 5528 5525 5523 5520 5518 5515 5512 5509 5507 5504 5501 5499 5496 5494 5492 5489 5487 5485 5484 5483 5481 5480 5478 5477 5475 5474 5473 5473 5472 5470 5470 5469 5469 5469 5469
5528 5527 5526 5525 5523 5522 5520 5518 5516 5513 5511 5509 5507 5504 5502 5500 5497 5494 5491 5489 5486 5484 5482 5481 5479 5478 5477 5476 5475 5473 5472 5471 5470 5469 5468 5468 5467 5467 5466 5466 5466 5466 5466
5516 5515 5514 5513 5512 5510 5508 5506 5503 5501 5499 5497 5495 5493 5491 5489 5486 5484 5481 5479 5477 5475 5474 5473 5471 5470 5470 5469 5468 5467 5466 5466 5465 5464 5464 5464 5463 5463 5463 5463 5463 5464 5464
5504 5503 5503 5501 5500 5498 5497 5495 5493 5490 5487 5486 5484 5483 5481 5479 5477 5474 5472 5470 5468 5467 5466 5465 5464 5463 5462 5461 5461 5461 5460 5460 5460 5460 5460 5460 5460 5460 5461 5461 5461 5462 5462
5492 5492 5491 5490 5488 5487 5485 5483 5481 5479 5478 5475 5474 5472 5470 5469 5467 5465 5463 5462 5460 5459 5458 5457 5456 5455 5455 5455 5454 5454 5454 5455 5455 5456 5456 5456 5457 5457 5458 5459 5460 5460 5461
5480 5480 5479 5478 5476 5475 5473 5472 5470 5468 5467 5466 5464 5462 5460 5459 5457 5456 5454 5453 5452 5451 5450 5450 5449 5448 5448 5448 5448 5449 5449 5450 5451 5452 5453 5453 5454 5455 5456 5457 5458 5459 5461
5468 5468 5467 5466 5465 5463 5462 5461 5459 5458 5457 5456 5455 5453 5451 5449 5448 5447 5446 5445 5444 5444 5443 5443 5442 5442 5443 5443 5444 5444 5445 5446 5447 5449 5450 5451 5452 5454 5455 5456 5458 5459 5460
5457 5456 5455 5454 5453 5452 5451 5450 5449 5447 5446 5445 5445 5443 5441 5441 5440 5440 5438 5438 5437 5436 5436 5436 5436 5437 5438 5439 5440 5441 5442 5443 5445 5446 5448 5449 5451 5452 5454 5456 5457 5459 5460
5446 5445 5444 5443 5443 5442 5441 5440 5439 5438 5437 5436 5435 5435 5433 5433 5432 5432 5432 5431 5431 5431 5431 5431 5432 5433 5434 5435 5436 5438 5439 5441 5443 5445 5446 5448 5450 5452 5454 5456 5458 5459 5460
5436 5435 5434 5434 5433 5433 5432 5431 5430 5429 5428 5428 5427 5427 5426 5426 5426 5426 5426 5425 5425 5426 5426 5427 5428 5430 5431 5433 5434 5436 5438 5440 5442 5444 5446 5448 5450 5452 5454 5456 5458 5459 5460
5426 5426 5425 5425 5424 5424 5423 5423 5422 5422 5421 5421 5421 5421 5420 5420 5420 5421 5421 5421 5422 5422 5424 5425 5426 5428 5430 5432 5434 5436 5438 5440 5442 5444 5446 5449 5451 5453 5455 5457 5458 5460 5461
5418 5417 5417 5417 5416 5416 5416 5416 5416 5415 5415 5415 5415 5415 5415 5415 5416 5417 5417 5418 5419 5421 5422 5424 5426 5428 5430 5431 5434 5436 5438 5440 5443 5445 5447 5449 5451 5453 5455 5457 5459 5460 5461
5410 5410 5410 5410 5410 5410 5410 5410 5410 5410 5410 5410 5411 5411 5411 5412 5413 5414 5415 5416 5418 5419 5421 5423 5425 5427 5430 5432 5434 5437 5439 5441 5443 5445 5447 5450 5452 5454 5456 5457 5459 5460 5462